sat.trackr.live / text

‹ back to catalog

STARLINK-2610

NORAD 48376 · 2021-038Z

PAYLOAD ACTIVE UNKNOWN

§ Identity

Operator
Country
US
Launch date
2021-05-04
Launch site
AFETR
Launch vehicle
Mass (kg)
RCS (m²)

Purposes: comms

External: N2YO · Heavens-Above · Gunter

§ Orbital elements

Epoch: 2026-09-20T00:00:02.999808Z

Period
90.52 min
Inclination
53.1477°
Eccentricity
0.0004084
Mean motion
15.90742077 rev/d
Perigee alt
297.5 km
Apogee alt
302.9 km
Semi-major
6,678.3 km
B*
7.9802e-4
RAAN
126.8474°
Arg perigee
166.0349°
Mean anomaly
277.5892°
Rev number
602

§ Raw data

STARLINK-26101 48376U 21038Z   26263.00003472  .00251000  34316-4  79802-3 0  99952 48376  53.1477 126.8474 0004084 166.0349 277.5892 15.90742077  6024

JSON: /api/v1/satellites/48376 · /tle

For live sub-satellite position, see the globe view (requires WebGL).

§ Visibility from observer

Set your observer location to see the next 7 days of passes ≥ 10°. The values pass through the URL so the page stays shareable.

No JS? Fill the form by hand. The geolocation button needs JavaScript.